| time (UTC) | temp F | wind direction | speed knots | gust knots | rain 1hr in | rain 24hr in | rain mn in | humidity % | barometer mb |
| 20260507193014 | 44 | 52 | 8.7 | 11.3 | 0.00 | 0.00 | 0.00 | 68 | 1011.5 |
| 20260507191511 | 44 | 48 | 7.8 | 11.3 | 0.00 | 0.00 | 0.00 | 67 | 1011.7 |
| 20260507190012 | 44 | 41 | 7.0 | 11.3 | 0.00 | 0.00 | 0.00 | 69 | 1011.8 |
| 20260507184516 | 43 | 46 | 7.8 | 11.3 | 0.00 | 0.00 | 0.00 | 66 | 1012.0 |
| 20260507183009 | 44 | 53 | 8.7 | 12.2 | 0.00 | 0.00 | 0.00 | 67 | 1011.9 |
| 20260507181508 | 43 | 57 | 7.0 | 12.2 | 0.00 | 0.00 | 0.00 | 71 | 1012.0 |
| 20260507180007 | 43 | 60 | 7.0 | 9.6 | 0.00 | 0.00 | 0.00 | 71 | 1011.9 |
| 20260507174507 | 43 | 81 | 7.8 | 12.2 | 0.00 | 0.00 | 0.00 | 69 | 1011.9 |
| 20260507173006 | 44 | 42 | 9.6 | 13.0 | 0.00 | 0.00 | 0.00 | 68 | 1011.9 |
| 20260507171504 | 44 | 57 | 5.2 | 9.6 | 0.00 | 0.00 | 0.00 | 68 | 1012.0 |
| 20260507170005 | 45 | 94 | 5.2 | 9.6 | 0.00 | 0.00 | 0.00 | 68 | 1011.8 |
| 20260507164504 | 45 | 67 | 2.6 | 10.4 | 0.00 | 0.00 | 0.00 | 68 | 1011.7 |
| 20260507163003 | 47 | 94 | 2.6 | 6.1 | 0.00 | 0.00 | 0.00 | 66 | 1011.9 |
| 20260507161502 | 49 | 22 | 2.6 | 7.8 | 0.00 | 0.00 | 0.00 | 56 | 1011.9 |
| 20260507160001 | 49 | 304 | 1.7 | 9.6 | 0.00 | 0.00 | 0.00 | 56 | 1011.9 |
| 20260507154607 | 49 | 294 | 0.9 | 4.3 | 0.00 | 0.00 | 0.00 | 58 | 1012.0 |
| 20260507153159 | 49 | 284 | 0.9 | 3.5 | 0.00 | 0.00 | 0.00 | 56 | 1012.0 |
| 20260507151558 | 49 | 277 | 3.5 | 13.0 | 0.00 | 0.00 | 0.00 | 58 | 1011.8 |
| 20260507150059 | 49 | 25 | 0.0 | 4.3 | 0.00 | 0.00 | 0.00 | 59 | 1012.1 |
| 20260507144554 | 48 | 263 | 1.7 | 4.3 | 0.00 | 0.00 | 0.00 | 57 | 1012.1 |
| 20260507143053 | 48 | 173 | 0.0 | 4.3 | 0.00 | 0.00 | 0.00 | 62 | 1012.1 |
| 20260507141544 | 47 | 267 | 1.7 | 3.5 | 0.00 | 0.00 | 0.00 | 60 | 1012.2 |
| 20260507140041 | 46 | 275 | 1.7 | 7.0 | 0.00 | 0.00 | 0.00 | 62 | 1012.3 |
| 20260507134539 | 46 | 15 | 1.7 | 5.2 | 0.00 | 0.00 | 0.00 | 64 | 1012.4 |
| 20260507133035 | 44 | 295 | 0.9 | 5.2 | 0.00 | 0.00 | 0.00 | 66 | 1012.5 |
| 20260507131531 | 43 | 92 | 0.9 | 3.5 | 0.00 | 0.00 | 0.00 | 69 | 1012.4 |
| 20260507130037 | 42 | 82 | 0.0 | 0.0 | 0.00 | 0.00 | 0.00 | 71 | 1012.6 |
| 20260507124529 | 41 | 82 | 0.0 | 3.5 | 0.00 | 0.00 | 0.00 | 77 | 1012.6 |
| 20260507123020 | 40 | 17 | 0.9 | 2.6 | 0.00 | 0.00 | 0.00 | 78 | 1012.6 |
| 20260507121519 | 39 | 5 | 2.6 | 3.5 | 0.00 | 0.00 | 0.00 | 80 | 1012.8 |
| 20260507120021 | 39 | 351 | 1.7 | 2.6 | 0.00 | 0.00 | 0.00 | 81 | 1012.7 |
| 20260507114514 | 38 | 350 | 0.0 | 0.0 | 0.00 | 0.00 | 0.00 | 81 | 1012.7 |
| 20260507113010 | 37 | 350 | 0.0 | 0.0 | 0.00 | 0.00 | 0.00 | 82 | 1012.7 |
| 20260507111509 | 36 | 355 | 0.0 | 1.7 | 0.00 | 0.00 | 0.00 | 83 | 1012.5 |
| 20260507110008 | 36 | 355 | 0.0 | 2.6 | 0.00 | 0.00 | 0.00 | 83 | 1012.2 |
| 20260507104504 | 35 | 355 | 0.0 | 2.6 | 0.00 | 0.00 | 0.00 | 83 | 1012.1 |
| 20260507103001 | 35 | 316 | 0.0 | 0.0 | 0.00 | 0.00 | 0.00 | 83 | 1012.1 |
| 20260507101501 | 35 | 316 | 0.0 | 0.0 | 0.00 | 0.00 | 0.00 | 83 | 1012.1 |
| 20260507100100 | 35 | 311 | 0.0 | 0.0 | 0.00 | 0.00 | 0.00 | 82 | 1012.1 |
| 20260507094600 | 35 | 311 | 0.0 | 0.0 | 0.00 | 0.00 | 0.00 | 83 | 1011.9 |
| 20260507093108 | 35 | 311 | 0.0 | 1.7 | 0.00 | 0.00 | 0.00 | 83 | 1012.0 |
| 20260507091558 | 35 | 311 | 0.0 | 0.0 | 0.00 | 0.00 | 0.00 | 83 | 1012.0 |
| 20260507090057 | 35 | 311 | 0.0 | 1.7 | 0.00 | 0.00 | 0.00 | 83 | 1011.9 |
| 20260507084557 | 34 | 355 | 0.0 | 0.0 | 0.00 | 0.00 | 0.00 | 82 | 1011.9 |
| 20260507083055 | 34 | 355 | 0.0 | 0.0 | 0.00 | 0.00 | 0.00 | 81 | 1012.0 |
| 20260507081554 | 35 | 355 | 0.0 | 0.0 | 0.00 | 0.00 | 0.00 | 80 | 1012.1 |
| 20260507080105 | 34 | 355 | 0.0 | 0.0 | 0.00 | 0.00 | 0.00 | 81 | 1012.1 |
| 20260507074552 | 33 | 355 | 0.0 | 0.9 | 0.00 | 0.00 | 0.00 | 82 | 1012.2 |
| 20260507073050 | 33 | 355 | 0.0 | 0.9 | 0.00 | 0.00 | 0.00 | 82 | 1012.3 |
| 20260507071606 | 34 | 355 | 0.0 | 0.0 | 0.00 | 0.00 | 0.00 | 80 | 1012.3 |
| 20260507070044 | 35 | 355 | 0.0 | 0.0 | 0.00 | 0.00 | 0.00 | 78 | 1012.3 |
| 20260507064541 | 36 | 355 | 0.9 | 3.5 | 0.00 | 0.00 | 0.00 | 77 | 1012.4 |
| 20260507063044 | 37 | 109 | 0.0 | 2.6 | 0.00 | 0.00 | 0.00 | 75 | 1012.3 |
| 20260507061538 | 37 | 90 | 0.9 | 5.2 | 0.00 | 0.00 | 0.00 | 75 | 1012.3 |
| 20260507060037 | 37 | 130 | 2.6 | 7.0 | 0.00 | 0.00 | 0.00 | 75 | 1012.2 |
| 20260507054534 | 38 | 117 | 3.5 | 7.8 | 0.00 | 0.00 | 0.00 | 74 | 1012.2 |
| 20260507053049 | 38 | 91 | 3.5 | 7.0 | 0.00 | 0.00 | 0.00 | 74 | 1012.4 |
| 20260507051539 | 39 | 128 | 4.3 | 7.8 | 0.00 | 0.00 | 0.00 | 73 | 1012.5 |
| 20260507050034 | 38 | 76 | 4.3 | 7.8 | 0.00 | 0.00 | 0.00 | 73 | 1012.7 |
| 20260507044529 | 38 | 68 | 3.5 | 6.1 | 0.00 | 0.00 | 0.00 | 73 | 1012.9 |
| 20260507043025 | 38 | 74 | 4.3 | 7.8 | 0.00 | 0.00 | 0.00 | 72 | 1013.0 |
| 20260507041518 | 37 | 55 | 2.6 | 5.2 | 0.00 | 0.00 | 0.00 | 73 | 1013.1 |
| 20260507040016 | 37 | 71 | 3.5 | 7.0 | 0.00 | 0.00 | 0.00 | 72 | 1013.2 |
| 20260507034529 | 37 | 44 | 5.2 | 10.4 | 0.00 | 0.00 | 0.00 | 72 | 1013.2 |
| 20260507033025 | 38 | 53 | 7.8 | 10.4 | 0.00 | 0.00 | 0.00 | 70 | 1013.2 |
| 20260507031513 | 38 | 33 | 7.8 | 13.0 | 0.00 | 0.00 | 0.00 | 70 | 1013.4 |
| 20260507030013 | 38 | 29 | 9.6 | 12.2 | 0.00 | 0.00 | 0.00 | 69 | 1013.4 |
| 20260507024512 | 38 | 31 | 8.7 | 12.2 | 0.00 | 0.00 | 0.00 | 70 | 1013.4 |
| 20260507023019 | 38 | 20 | 9.6 | 13.0 | 0.00 | 0.00 | 0.00 | 71 | 1013.2 |
| 20260507021508 | 38 | 28 | 10.4 | 13.0 | 0.00 | 0.00 | 0.00 | 72 | 1013.0 |
| 20260507020008 | 38 | 38 | 5.2 | 9.6 | 0.00 | 0.00 | 0.00 | 74 | 1012.8 |
| 20260507014511 | 38 | 59 | 4.3 | 7.8 | 0.00 | 0.00 | 0.00 | 72 | 1012.7 |
| 20260507013006 | 39 | 67 | 4.3 | 7.0 | 0.00 | 0.00 | 0.00 | 72 | 1012.5 |
| 20260507011506 | 39 | 99 | 3.5 | 6.1 | 0.00 | 0.00 | 0.00 | 71 | 1012.5 |
| 20260507010006 | 39 | 110 | 3.5 | 6.1 | 0.00 | 0.00 | 0.00 | 70 | 1012.4 |
| 20260507004504 | 39 | 86 | 3.5 | 6.1 | 0.00 | 0.00 | 0.00 | 68 | 1012.5 |
| 20260507003004 | 39 | 122 | 4.3 | 7.0 | 0.00 | 0.00 | 0.00 | 67 | 1012.4 |
| 20260507001504 | 39 | 103 | 5.2 | 7.8 | 0.00 | 0.00 | 0.00 | 67 | 1012.3 |
| 20260507000007 | 40 | 136 | 4.3 | 7.8 | 0.00 | 0.00 | 0.00 | 67 | 1012.2 |
| 20260506234502 | 40 | 109 | 3.5 | 7.8 | 0.00 | 0.00 | 0.00 | 67 | 1012.2 |
| 20260506233001 | 40 | 114 | 6.1 | 8.7 | 0.00 | 0.00 | 0.00 | 65 | 1012.2 |
| 20260506231501 | 40 | 119 | 5.2 | 8.7 | 0.00 | 0.00 | 0.00 | 66 | 1012.2 |
| 20260506230107 | 40 | 121 | 6.1 | 10.4 | 0.00 | 0.00 | 0.00 | 65 | 1012.5 |
| 20260506224600 | 40 | 116 | 3.5 | 8.7 | 0.00 | 0.00 | 0.00 | 65 | 1012.5 |
| 20260506223105 | 40 | 109 | 3.5 | 9.6 | 0.00 | 0.00 | 0.00 | 64 | 1012.5 |
| 20260506221559 | 40 | 103 | 7.0 | 9.6 | 0.00 | 0.00 | 0.00 | 64 | 1012.5 |
| 20260506220058 | 40 | 111 | 7.0 | 11.3 | 0.00 | 0.00 | 0.00 | 63 | 1012.6 |
| 20260506214604 | 40 | 84 | 7.8 | 10.4 | 0.00 | 0.00 | 0.00 | 63 | 1012.5 |
| 20260506213056 | 40 | 86 | 7.0 | 10.4 | 0.00 | 0.00 | 0.00 | 62 | 1012.4 |
| 20260506211604 | 41 | 113 | 7.0 | 10.4 | 0.00 | 0.00 | 0.00 | 65 | 1012.2 |
| 20260506210056 | 41 | 73 | 7.0 | 10.4 | 0.00 | 0.00 | 0.00 | 64 | 1012.2 |
| 20260506204554 | 42 | 98 | 8.7 | 12.2 | 0.00 | 0.00 | 0.00 | 63 | 1012.3 |
| 20260506203052 | 43 | 63 | 7.0 | 12.2 | 0.00 | 0.00 | 0.00 | 65 | 1012.0 |
| 20260506201552 | 42 | 76 | 7.8 | 13.0 | 0.00 | 0.00 | 0.00 | 64 | 1012.1 |
| 20260506194556 | 43 | 112 | 8.7 | 13.0 | 0.00 | 0.00 | 0.00 | 65 | 1012.1 |